User: anonymous   Login
Location: Unspecified
(0.0000°N, 0.0000°E)
Time: 23:29:02
(UTC+00:00)
Language:

Orbcomm G2 (FM04) - Orbit

View from above orbital plane
View from above orbital plane
View from above satellite
View from above satellite

Ground track
Ground track

The orbit data is extracted from the following two-line orbital elements,

1 25159U 98007C   18140.30137816 +.00000075 +00000-0 +80027-4 0  9992
2 25159 107.9910 254.8927 0042771 053.5046 307.0020 14.29570007054536
Epoch (UTC): 20 May 2018 07:13:59
Eccentricity: 0.0042771
inclination: 107.9910°
perigee height: 762 km
apogee height: 824 km
right ascension of ascending node: 254.8927°
argument of perigee: 53.5046°
revolutions per day: 14.29570007
mean anomaly at epoch: 307.0020°
orbit number at epoch: 5453

The dashed part of the orbit path shows where the satellite is in the earth's shadow,  

DLR